Regional Weather Roundup
Issued by NWS Charleston, SC

Current Version | Previous Version | Graphics & Text | Print | Product List | Glossary On
Versions: 1 2 3 4 5 6 7 8 9 10 11 12 13 14 15 16 17 18 19 20 21 22 23 24 25 26 27 28 29 30 31 32 33 34 35 36 37 38 39 40 41 42 43 44 45 46 47 48 49 50
000
ASUS42 KCHS 240010
RWRCHS
REGIONAL WEATHER ROUNDUP
NATIONAL WEATHER SERVICE CHARLESTON SC
800 PM EDT TUE SEP 23 2014

NOTE: "FAIR" INDICATES FEW OR NO CLOUDS BELOW 12,000 FEET WITH NO
SIGNIFICANT WEATHER AND/OR OBSTRUCTIONS TO VISIBILITY.

NOT ALL STATIONS ARE QUALITY CONTROLLED BY THE NATIONAL
WEATHER SERVICE. USE DATA WITH CAUTION...ESPECIALLY
DEWPOINT OBSERVATIONS.

SCZ027-030-031-034>040-042>050-240100-
...SOUTH CAROLINA...

CITY           SKY/WX    TMP DP  RH WIND       PRES   REMARKS
N CHARLESTON   LGT RAIN  63  58  83 N16G24    30.17R
6HR MIN TEMP:  63; 6HR MAX TEMP:  72; 6HR PCP:  0.02;

WATERFRONT PRK NOT AVBL
FORT JOHNSON   NOT AVBL
MOUNT PLEASANT LGT RAIN  63  63 100 N7        30.16R
JOHNS ISLAND   LGT RAIN  63  63 100 N12G18    30.15S
PINOPOLIS        N/A     63  59  88 NE17G25   30.11R
MONCKS CORNER  NOT AVBL
SUMMERVILLE    NOT AVBL
BEAUFORT MCAS  CLOUDY    65  59  81 N12       30.16R
6HR MIN TEMP:  65; 6HR MAX TEMP:  74;

BEAUFORT ARPT  CLOUDY    64  61  88 N21G30    30.15R
HILTON HEAD IS CLOUDY    66  63  88 N16G23    30.15R
GEORGETOWN     NOT AVBL
WALTERBORO     CLOUDY    64  63  94 NE9       30.19R
ORANGEBURG     CLEAR     64  53  67 NE14      30.21R
6HR MIN TEMP:  63; 6HR MAX TEMP:  71;

BARNWELL       FAIR      64  57  77 N7        30.20S
AIKEN          FAIR      61  59  94 N9        30.26R
MANNING        MOCLDY    63  57  82 N12G18    30.21S
KINGSTREE      NOT AVBL
COLUMBIA       PTCLDY    63  54  72 NE9       30.23S
6HR MIN TEMP:  63; 6HR MAX TEMP:  68; 6HR PCP:  0.02;

SUMTER         MOCLDY    62  54  76 NE16      30.21S
6HR MIN TEMP:  62; 6HR MAX TEMP:  69;

FLORENCE       LGT RAIN  58  55  90 N12       30.23S
6HR MIN TEMP:  58; 6HR MAX TEMP:  62; 6HR PCP:  0.07;

MYRTLE BEACH   LGT RAIN  61  55  82 N18       30.18F FOG
N MYRTLE BEACH LGT RAIN  61  57  87 N16G26    30.18S
6HR MIN TEMP:  60; 6HR MAX TEMP:  67; 6HR PCP:  0.22;


$$

GAZ063-065-086>088-099>101-113>116-118-119-134-136>141-150-240100-
...GEORGIA...

CITY           SKY/WX    TMP DP  RH WIND       PRES   REMARKS
SAVANNAH ARPT  CLOUDY    69  62  78 NE9       30.14R
6HR MIN TEMP:  69; 6HR MAX TEMP:  79;

HUNTER AAF     CLOUDY    68  63  83 NE9G17    30.11R
6HR MIN TEMP:  68; 6HR MAX TEMP:  78;

FORT STEWART   CLOUDY    70  63  78 NE15G23   30.11R
6HR MIN TEMP:  70; 6HR MAX TEMP:  80;

STATESBORO     NOT AVBL
SYLVANIA       PTCLDY    69  65  86 NE10      30.17S
CLAXTON        FAIR      70  64  83 NE8       30.14R
THOMSON        CLOUDY    67  63  86 NE7       30.26R
AUGUSTA-BUSH   PTCLDY    64  57  78 NE9       30.20S
6HR MIN TEMP:  64; 6HR MAX TEMP:  76;

AUGUSTA-DANIEL CLOUDY    67  58  72 NE12      30.22R
SWAINSBORO     CLOUDY    72  64  78 NE9G16    30.16S
VIDALIA        MOCLDY    70  64  83 NE10G17   30.14R
ALMA           CLEAR     72  64  76 NE9       30.10R
6HR MIN TEMP:  72; 6HR MAX TEMP:  83;

WAYCROSS       CLOUDY    77  68  74 E9G17     30.09R
JESUP          CLOUDY    75  68  78 NE7G16    30.10R
BRUNSWICK      CLOUDY    73  64  73 N9        30.09R
SAINT SIMONS   CLOUDY    72  66  81 N16G24    30.07R
6HR MIN TEMP:  72; 6HR MAX TEMP:  79; 6HR PCP:  0.02;


$$

SCZ027-028-034-036>038-045-046-048>050-GAZ119-141-240100-
...LAKE AND SUPPLEMENTAL COASTAL OBSERVATIONS...

STATION/POSITION TIME  TEMP    WIND        PRES    WAVE   SWELL
                       AIR SEA DIR/SP/G            HT/PER HT/PER/DIR
                 (UTC) (F)     (DEG/KT/KT) (MB)    (FT/S) (FT/S/D)
UPR LAKE MARION  NOT AVBL
WINYAH BAY       2300   61      20/ 13     1021.0S
LAKE MURRAY      2300   62      20/  4/  8 1023.7R
ACE BASIN NERRS  2300   65      20/  5     1021.0R
FORT PULASKI     0000   69     360/ 16/ 20 1020.3S
SAPELO ISLAND    NOT AVBL

$$

ANZ835-935-AMZ111-154-330-350-352-354-374-450-454-472-240100-
...C-MAN AND BUOY OBSERVATIONS...

STATION/POSITION TIME  TEMP    WIND        PRES    WAVE   SWELL
                       AIR SEA DIR/SP/G            HT/PER HT/PER/DIR
                 (UTC) (F)     (DEG/KT/KT) (MB)    (FT/S) (FT/S/D)
FOLLY BEACH CMAN 2300   63     350/ 15/ 17 1021.0R
BUOY 41004       0000   72 81   20/ 29/ 35 1017.6F   9/ 8   2/15
BUOY 41008       0000   75 82   20/ 27/ 31 1017.2R   8/ 7
5E ST. MARYS GA  0000      82                N/A     7/ 6
FRYING PAN BUOY  NOT AVBL
BUOY 41025       0000   71      10/ 25/ 31 1020.2R   8/ 6
CAPE LOOKOUT NC  2300   67      10/ 19/ 22 1021.2S
BUOY 41002       NOT AVBL
BUOY 41010       0000   76 84   70/ 12/ 14 1016.2F   3/ 7   2/100/ 7
BUOY 41012       NOT AVBL
ST AUGUSTINE FL  0000   78      30/ 20/ 22 1016.9S
CAPERS NEARSHORE 2300   68      50/ 25/ 31   N/A
FRIPP NEARSHORE  NOT AVBL


$$


USA.gov is the U.S. government's official web portal to all federal, state and local government web resources and services.